Regional Weather Roundup
Issued by NWS

Home | Current Version | Previous Version | Text Only | Print | Product List | Glossary Off
Versions: 1 2 3 4 5 6 7 8 9 10 11 12 13 14 15 16 17 18 19 20 21 22 23 24 25 26 27 28 29 30 31 32 33 34 35 36 37 38 39 40 41 42 43 44 45 46 47 48 49 50

000
ASUS44 KMEG 141910
RWRTN
TENNESSEE HOURLY STATE WEATHER ROUNDUP
NATIONAL WEATHER SERVICE MEMPHIS TN
200 PM CDT SUN SEP 14 2014

TNZ002-004-019-021-049-052-054-088>092-142000-
WEST TENNESSEE

CITY           SKY/WX    TMP DP  RH WIND       PRES   REMARKS
MEMPHIS INTL   MOSUNNY   77  56  48 VRB6      30.21F
NWS MEMPHIS      N/A     74 N/A N/A MISG        N/A
JACKSON        SUNNY     75  56  51 NE5       30.22F
DYERSBURG      SUNNY     72  48  43 N3        30.24F
UNION CITY     SUNNY     72  52  49 CALM      30.22F
PARIS          SUNNY     72  50  46 N6        30.23F
HUNTINGDON     SUNNY     71  51  49 VRB5      30.22F
LEXINGTON      SUNNY     72  54  53 E5        30.21F
SAVANNAH       SUNNY     77  59  53 VRB6      30.20F
$$

TNZ008-025-027-028-033-062-065-066-142000-
NORTH MIDDLE TENNESSEE

CITY           SKY/WX    TMP DP  RH WIND       PRES   REMARKS
NASHVILLE      PTSUNNY   77  57  50 NE7       30.21F
DICKSON        MOSUNNY   72  55  56 VRB6      30.22F
PORTLAND       SUNNY     72  55  56 VRB7      30.21F
CLARKSVILLE    SUNNY     74  53  48 VRB3      30.22F
LEBANON        MOSUNNY   72  58  61 CALM      30.20F
SMYRNA         PTSUNNY   75  59  57 N7        30.21F
MURFREESBORO   MOSUNNY   74  59  59 NE6       30.20F
COOKEVILLE     MOSUNNY   73  63  68 VRB5      30.21F
GALLATIN       MOSUNNY   75  59  57 CALM      30.22F
CROSSVILLE     PTSUNNY   75  59  57 VRB6      30.22F
$$

TNZ061-075-076-078-094-096-097-142000-
SOUTH MIDDLE TENNESSEE

CITY           SKY/WX    TMP DP  RH WIND       PRES   REMARKS
LEWISBURG      MOSUNNY   77  62  59 NW3       30.19F
FAYETTEVILLE     N/A     75  61  60 N5        30.19F
TULLAHOMA      SUNNY     75  59  57 N6        30.21F
WINCHESTER     SUNNY     79  63  57 VRB7      30.19F
MCMINNVILLE    SUNNY     75  64  69 N3        30.20F
COLUMBIA       SUNNY     75  61  60 CALM      30.19F
SHELBYVILLE    SUNNY     77  61  57 NE6       30.20F
$$

TNZ017-018-042-046-047-142000-
NORTHEAST TENNESSEE

CITY           SKY/WX    TMP DP  RH WIND       PRES   REMARKS
TRI CITIES     CLOUDY    72  60  66 CALM      30.22S
ELIZABETHTON   CLOUDY    68  57  68 SE8       30.23S
$$

TNZ012-013-036-069-073-074-142000-
CENTRAL EAST TENNESSEE

CITY           SKY/WX    TMP DP  RH WIND       PRES   REMARKS
KNOXVILLE      CLOUDY    73  62  68 W7        30.19F
OAK RIDGE      CLOUDY    74  61  63 VRB3      30.21F
GATLINBURG     CLOUDY    73  63  68 S3        30.19F
MORRISTOWN       N/A     72  63  73 CALM      30.22F
$$

TNZ083-085-099-142000-
SOUTHEAST TENNESSEE

CITY           SKY/WX    TMP DP  RH WIND       PRES   REMARKS
CHATTANOOGA    PTSUNNY   77  63  61 CALM      30.19F
$$

SKY/WX REPORTED AS FAIR MEANS FEW OR NO CLOUDS BELOW
12 THOUSAND FEET.




USA.gov is the U.S. government's official web portal to all federal, state and local government web resources and services.